Flag for USA

Past Weather in Sam Houston High School Baseball Field, Texas, USA — Yesterday and Last 2 Weeks

Now
72 °F

Sunny.


Feels Like: 77 °F
Forecast: 74 / 49 °F
Wind: 10 mph from East

Location: Houston Hobby Airport

Current Time: Dec 14, 2019 at 1:38:29 pm

Latest Report: Dec 14, 2019 at 12:53 pm


Visibility: 10 mi

Pressure: 29.84 "Hg

Humidity: 43%

Dew Point: 48 °F

Location of Sam Houston High School Baseball FieldLocation

Past Weather in Sam Houston High School Baseball Field — Graph

°F

Sam Houston High School Baseball Field Temperature Yesterday

Maximum temperature yesterday: 75 °F (at 2:53 pm)
Minimum temperature yesterday: 57 °F (at 2:53 am)
Average temperature yesterday: 64 °F

High & Low Weather Summary for the Past Weeks

 TemperatureHumidityPressure
High83 °F (Dec 9, 12:53 pm)97% (Dec 9, 7:19 am)30.53 "Hg (Dec 9, 7:19 am)
Low42 °F (Dec 3, 4:53 am)22% (Dec 4, 2:53 pm)29.74 "Hg (Nov 30, 3:33 pm)
Average62 °F68%30.07 "Hg
* Reported Nov 29 11:02 am — Dec 14 11:53 am, Sam Houston High School Baseball Field. Weather by CustomWeather, © 2019

Note: Actual official high and low records may vary slightly from our data, if they occured in-between our weather recording intervals... More about our weather records

Sam Houston High School Baseball Field Weather History for the Previous 24 Hours

Scroll right to see more
 ConditionsComfort  
Time TempWeatherWind HumidityBarometerVisibility
11:53 am
Sat, Dec 14
69 °FSunny.8 mph44%29.89 "Hg10 mi
10:53 am66 °FSunny.7 mph52%29.92 "Hg10 mi
9:53 am62 °FSunny.6 mph62%29.93 "Hg10 mi
8:53 am58 °FPassing clouds.6 mph72%29.91 "Hg10 mi
7:53 am53 °FSunny.3 mph80%29.91 "Hg10 mi
6:53 am50 °FClear.3 mph83%29.89 "Hg10 mi
5:53 am48 °FClear.No wind83%29.87 "Hg10 mi
4:53 am49 °FPassing clouds.No wind84%29.86 "Hg10 mi
3:53 am52 °FPassing clouds.No wind77%29.87 "Hg10 mi
2:53 am51 °FPassing clouds.No wind80%29.87 "Hg10 mi
1:53 am52 °FPassing clouds.No wind80%29.87 "Hg10 mi
12:53 am55 °FPassing clouds.No wind74%29.87 "Hg10 mi
11:53 pm
Fri, Dec 13
58 °FPassing clouds.5 mph67%29.88 "Hg10 mi
10:53 pm60 °FPassing clouds.6 mph65%29.88 "Hg10 mi
9:53 pm59 °FPassing clouds.7 mph67%29.87 "Hg10 mi
8:53 pm61 °FPassing clouds.3 mph65%29.86 "Hg10 mi
7:53 pm60 °FPassing clouds.3 mph67%29.84 "Hg10 mi
6:53 pm67 °FPassing clouds.No wind51%29.83 "Hg10 mi
5:53 pm69 °FPassing clouds.7 mph49%29.81 "Hg10 mi
4:53 pm72 °FPartly sunny.14 mph44%29.80 "Hg10 mi
3:53 pm74 °FScattered clouds.14 mph43%29.79 "Hg10 mi
2:53 pm75 °FScattered clouds.14 mph47%29.80 "Hg10 mi
1:53 pm74 °FPartly sunny.13 mph50%29.81 "Hg10 mi
Weather by CustomWeather, © 2019

See weather overview

Advertising